Location: Unspecified
(43.8044°N, 11.0278°E)
Time: 07:05:13
(UTC+02:00)

Resurs 1-4 Rocket - Visible Passes

Search period start: 31 July 2015 00:00
Search period end: 10 August 2015 00:00
Orbit: 800 x 815 km, 98.4° (Epoch: 30 July)

Date Brightness Start Highest point End Pass type
(mag) Time Alt. Az. Time Alt. Az. Time Alt. Az.
31 Jul 3.6 03:58:44 10° NNE 04:03:23 32° E 04:08:04 10° SSE visible
01 Aug 4.3 03:34:56 10° NE 03:38:37 20° E 03:42:26 10° SE visible
01 Aug 2.3 05:13:46 10° N 05:18:55 56° WNW 05:24:01 10° SSW visible
02 Aug 4.7 03:12:13 10° ENE 03:13:43 11° E 03:15:33 10° ESE visible
02 Aug 2.1 04:49:10 10° NNE 04:54:28 90° E 04:59:44 10° SSW visible
03 Aug 2.7 04:24:45 10° NNE 04:29:55 55° E 04:35:04 10° S visible
04 Aug 3.5 04:00:34 10° NNE 04:05:17 33° E 04:10:02 10° SSE visible
05 Aug 4.2 03:36:44 10° NE 03:40:31 20° E 03:44:28 10° SE visible
05 Aug 2.3 05:15:40 10° N 05:20:47 53° WNW 05:25:52 10° SSW visible
06 Aug 4.6 03:13:47 10° ENE 03:15:38 12° E 03:17:49 10° ESE visible
06 Aug 2.1 04:51:04 10° NNE 04:56:21 86° W 05:01:36 10° SSW visible
07 Aug 2.6 04:26:37 10° NNE 04:31:49 58° E 04:36:59 10° S visible
08 Aug 3.4 04:02:24 10° NNE 04:07:11 35° E 04:11:59 10° SSE visible
09 Aug 4.2 03:38:31 10° NE 03:42:27 22° E 03:46:29 10° SE visible
09 Aug 2.4 05:17:34 10° N 05:22:40 51° WNW 05:27:43 10° SW visible
